Date String (YYYY-MM-DD hh:mm:ss) UTC,Instrument flags,Ambient pressure (hPa),Sample flow (lpm),Bypass flow (lpm),Sample temperature (°C),Ambient temperature (°C),ASC tube jacket temperature (°C),LED temperature (°C),Box temperature (°C),Sample RH (%),Span deviation,Mass concentration (μg/m³),Mass concentration (μg/m³),Mass concentration (μg/m³)
DateTimeUTC,F1_M11,P_M11,Q1_M11,Q2_M11,T1_M11,T2_M11,T3_M11,T4_M11,T5_M11,U1_M11,ZSPAN_M11,X0_M11,X2_M11,X1_M11
2022-02-27 20:00:00,,0831.0,5.00,0.00,26.4,25.7,00.0,35.3,28.3,06.3,0000.0,0003.98,0002.84,0002.51
2022-02-27 20:01:00,,0831.0,4.99,0.00,26.4,25.7,00.0,35.3,28.3,06.2,0000.0,0003.92,0002.83,0002.50
2022-02-27 20:02:00,,0831.0,5.00,0.00,26.4,25.7,00.0,35.3,28.2,06.8,0000.0,0004.04,0002.88,0002.50
2022-02-27 20:03:00,,0831.0,5.01,0.00,26.4,25.7,00.0,35.3,28.3,07.5,0000.0,0004.06,0002.89,0002.52
2022-02-27 20:04:00,,0831.0,4.99,0.00,26.4,25.7,00.0,35.3,28.3,07.3,0000.0,0004.07,0002.91,0002.55
2022-02-27 20:05:00,,0831.0,4.99,0.00,26.4,25.7,00.0,35.3,28.3,06.7,0000.0,0004.03,0002.91,0002.56
2022-02-27 20:06:00,,0831.0,4.99,0.00,26.4,25.7,00.0,35.3,28.3,06.7,0000.0,0003.88,0002.92,0002.58
2022-02-27 20:07:00,,0831.0,5.02,0.00,26.4,25.7,00.0,35.3,28.3,07.2,0000.0,0003.93,0002.98,0002.61
2022-02-27 20:08:00,,0831.0,5.00,0.00,26.4,25.7,00.0,35.3,28.3,07.0,0000.0,0004.27,0002.99,0002.62
2022-02-27 20:09:00,,0830.9,4.99,0.00,26.5,25.7,00.0,35.3,28.3,06.7,0000.0,0004.25,0002.97,0002.61
2022-02-27 20:10:00,,0830.9,5.00,0.00,26.5,25.7,00.0,35.4,28.3,06.5,0000.0,0004.08,0002.93,0002.61
2022-02-27 20:11:00,,0830.9,5.00,0.00,26.5,25.7,00.0,35.4,28.3,06.5,0000.0,0004.07,0002.93,0002.62
2022-02-27 20:12:00,,0831.0,5.00,0.00,26.5,25.7,00.0,35.4,28.3,06.4,0000.0,0004.19,0002.94,0002.62
2022-02-27 20:13:00,,0831.0,5.00,0.00,26.5,25.7,00.0,35.4,28.3,06.7,0000.0,0004.20,0002.93,0002.63
2022-02-27 20:14:00,,0830.9,4.99,0.00,26.5,25.8,00.0,35.4,28.3,06.5,0000.0,0004.20,0002.95,0002.65
2022-02-27 20:15:00,,0830.9,4.99,0.00,26.5,25.8,00.0,35.4,28.3,06.5,0000.0,0004.18,0002.96,0002.67
2022-02-27 20:16:00,,0830.9,5.00,0.00,26.5,25.8,00.0,35.4,28.4,06.4,0000.0,0004.20,0002.99,0002.69
2022-02-27 20:17:00,,0830.9,5.01,0.00,26.5,25.8,00.0,35.4,28.4,06.2,0000.0,0004.31,0003.02,0002.72
2022-02-27 20:18:00,,0830.8,5.01,0.00,26.5,25.8,00.0,35.4,28.3,06.3,0000.0,0004.28,0003.04,0002.75
2022-02-27 20:19:00,,0830.7,4.99,0.00,26.5,25.8,00.0,35.4,28.3,06.6,0000.0,0003.98,0003.08,0002.80
2022-02-27 20:20:00,,0830.7,5.02,0.00,26.5,25.8,00.0,35.4,28.3,07.1,0000.0,0004.02,0003.12,0002.87
2022-02-27 20:21:00,,0830.7,4.99,0.00,26.5,25.8,00.0,35.4,28.4,07.4,0000.0,0004.17,0003.18,0002.96
2022-02-27 20:22:00,,0830.8,5.00,0.00,26.5,25.8,00.0,35.4,28.4,07.3,0000.0,0004.37,0003.24,0003.04
2022-02-27 20:23:00,,0830.7,5.00,0.00,26.5,25.8,00.0,35.4,28.4,07.1,0000.0,0004.37,0003.29,0003.12
2022-02-27 20:24:00,,0830.7,5.00,0.00,26.5,25.8,00.0,35.4,28.3,06.8,0000.0,0004.78,0003.34,0003.17
2022-02-27 20:25:00,,0830.7,5.00,0.00,26.5,25.8,00.0,35.5,28.3,06.6,0000.0,0005.26,0003.38,0003.21
2022-02-27 20:26:00,,0830.7,5.00,0.00,26.5,25.8,00.0,35.5,28.4,06.6,0000.0,0005.49,0003.44,0003.27
2022-02-27 20:27:00,,0830.7,5.00,0.00,26.6,25.8,00.0,35.5,28.4,06.6,0000.0,0005.66,0003.51,0003.31
2022-02-27 20:28:00,,0830.7,5.00,0.00,26.6,25.9,00.0,35.5,28.4,06.8,0000.0,0005.68,0003.56,0003.35
2022-02-27 20:29:00,,0830.7,5.00,0.00,26.6,25.9,00.0,35.5,28.4,07.0,0000.0,0005.73,0003.59,0003.39
2022-02-27 20:30:00,,0830.7,4.99,0.00,26.6,25.9,00.0,35.5,28.5,06.4,0000.0,0005.82,0003.63,0003.43
2022-02-27 20:31:00,,0830.6,5.00,0.00,26.6,26.0,00.0,35.5,28.5,06.3,0000.0,0005.88,0003.66,0003.46
2022-02-27 20:32:00,,0830.6,5.01,0.00,26.7,26.0,00.0,35.5,28.5,06.5,0000.0,0005.99,0003.70,0003.51
2022-02-27 20:33:00,,0830.5,5.01,0.00,26.7,26.0,00.0,35.5,28.5,06.3,0000.0,0005.95,0003.75,0003.57
2022-02-27 20:34:00,,0830.6,5.00,0.00,26.7,26.0,00.0,35.5,28.5,06.5,0000.0,0006.09,0003.83,0003.65
2022-02-27 20:35:00,,0830.5,5.00,0.00,26.7,26.0,00.0,35.5,28.5,05.9,0000.0,0005.92,0003.91,0003.73
2022-02-27 20:36:00,,0830.6,4.99,0.00,26.7,26.0,00.0,35.6,28.5,06.2,0000.0,0005.67,0004.02,0003.81
2022-02-27 20:37:00,,0830.5,5.00,0.00,26.7,26.0,00.0,35.6,28.6,06.0,0000.0,0005.71,0004.09,0003.88
2022-02-27 20:38:00,,0830.6,4.99,0.00,26.7,26.0,00.0,35.6,28.6,06.0,0000.0,0005.89,0004.14,0003.95
2022-02-27 20:39:00,,0830.6,5.00,0.00,26.7,26.0,00.0,35.6,28.6,06.4,0000.0,0007.23,0004.20,0004.02
2022-02-27 20:40:00,,0830.5,5.01,0.00,26.7,26.0,00.0,35.6,28.6,06.2,0000.0,0007.80,0004.27,0004.09
2022-02-27 20:41:00,,0830.6,5.01,0.00,26.7,26.0,00.0,35.6,28.6,05.9,0000.0,0007.92,0004.38,0004.18
2022-02-27 20:42:00,,0830.5,5.00,0.00,26.7,26.0,00.0,35.6,28.5,06.0,0000.0,0008.10,0004.51,0004.29
2022-02-27 20:43:00,,0830.5,4.99,0.00,26.7,26.0,00.0,35.6,28.5,06.2,0000.0,0008.15,0004.59,0004.37
2022-02-27 20:44:00,,0830.6,4.99,0.00,26.7,26.0,00.0,35.6,28.5,06.3,0000.0,0008.54,0004.66,0004.43
2022-02-27 20:45:00,,0830.5,5.01,0.00,26.7,26.0,00.0,35.6,28.6,06.5,0000.0,0008.79,0004.68,0004.45
2022-02-27 20:46:00,,0830.5,5.00,0.00,26.7,26.0,00.0,35.6,28.6,06.6,0000.0,0008.79,0004.69,0004.47
2022-02-27 20:47:00,,0830.4,5.00,0.00,26.7,26.0,00.0,35.6,28.6,06.5,0000.0,0008.75,0004.67,0004.48
2022-02-27 20:48:00,,0830.4,5.01,0.00,26.7,26.0,00.0,35.6,28.5,06.5,0000.0,0008.80,0004.70,0004.51
2022-02-27 20:49:00,,0830.4,4.99,0.00,26.7,26.0,00.0,35.6,28.5,06.1,0000.0,0009.02,0004.74,0004.56
2022-02-27 20:50:00,,0830.3,5.00,0.00,26.7,26.0,00.0,35.6,28.5,06.1,0000.0,0008.64,0004.81,0004.63
2022-02-27 20:51:00,,0830.3,4.99,0.00,26.7,26.0,00.0,35.6,28.6,06.3,0000.0,0007.98,0004.85,0004.66
2022-02-27 20:52:00,,0830.3,5.00,0.00,26.8,26.1,00.0,35.7,28.6,06.2,0000.0,0007.95,0004.83,0004.65
2022-02-27 20:53:00,,0830.4,5.02,0.00,26.8,26.1,00.0,35.7,28.6,06.5,0000.0,0007.93,0004.82,0004.64
2022-02-27 20:54:00,,0830.4,5.00,0.00,26.8,26.1,00.0,35.7,28.6,06.6,0000.0,0007.95,0004.83,0004.64
2022-02-27 20:55:00,,0830.3,4.99,0.00,26.8,26.1,00.0,35.7,28.6,06.8,0000.0,0007.83,0004.84,0004.64
2022-02-27 20:56:00,,0830.4,4.99,0.00,26.8,26.1,00.0,35.7,28.7,06.7,0000.0,0007.46,0004.86,0004.67
2022-02-27 20:57:00,,0830.4,5.01,0.00,26.8,26.1,00.0,35.7,28.6,06.7,0000.0,0007.55,0004.94,0004.74
2022-02-27 20:58:00,,0830.4,5.00,0.00,26.8,26.1,00.0,35.7,28.7,06.9,0000.0,0007.62,0005.00,0004.79
2022-02-27 20:59:00,,0830.4,4.99,0.00,26.8,26.1,00.0,35.7,28.6,06.8,0000.0,0007.62,0005.01,0004.81
